{"data":{"norad_id":55041,"epoch":"2026-09-21T22:30:32.418144Z","epoch_age_seconds":41087,"freshness":"FRESH","line1":"1 55041U 23001AJ  26264.93787521  .00076811  00000+0  44421-3 0  9993","line2":"2 55041  97.3085 346.9022 0002088  86.6326 273.5180 15.78390526208253","mean_motion":15.78390526,"eccentricity":0.0002088,"inclination_deg":97.3085,"raan_deg":346.9022,"arg_perigee_deg":86.6326,"mean_anomaly_deg":273.518,"bstar":0.00044421,"rev_number":20825,"period_min":91.232174565143,"perigee_km":333.59861777242,"apogee_km":336.4020239176,"semimajor_km":6713.137320845,"source":"CELESTRAK","updated_at":"2026-09-22T09:00:25.266013Z"}}